RH
32 34 35 59 80 100 100 82 45 56 56 46 34 24 19 26 24 22 25 27 45 50 58 53 41 39 36 28 20 20 19 20 20 21 22 22 20 19 18 18 20 19 18 19 17 16 16 18 18
32 28 26 56 82 71 89 87 64 78 78 62 45 31 22 18 24 30 24 24 35 38 40 51 56 84 64 45 28 24 24 23 21 24 23 23 23 23 21 19 20 22 21 20 20 20 20 22 22
65 63 42 45 40 39 39 84 99 96 73 51 50 39 27 20 34 32 26 24 28 39 36 46 61 64 56 39 41 36 31 28 26 25 24 22 22 23 24 23 24 24 24 24 23 24 26 27 28
40 35 48 67 85 47 48 47 81 87 54 30 44 41 30 23 21 38 33 25 24 34 43 48 58 56 46 45 39 36 37 40 30 30 32 29 26 25 25 27 28 27 27 27 25 26 27 27 31
58 40 30 32 69 83 53 89 90 64 58 28 24 23 26 22 22 33 40 32 33 34 38 39 51 69 59 55 45 42 41 42 57 44 41 45 40 34 29 30 31 30 30 31 32 30 28 27 29
27 27 57 54 36 33 40 48 44 42 34 28 24 22 26 36 32 41 53 34 33 28 24 30 36 45 82 82 51 45 58 54 59 76 58 49 53 44 39 35 38 37 32 33 36 35 31 30 27
25 32 37 52 54 50 44 54 56 45 36 28 23 27 34 28 25 32 58 45 38 46 34 32 40 39 47 75 63 68 68 67 56 72 87 76 65 61 55 46 47 42 38 40 44 38 35 32 28
74 88 97 78 81 79 69 50 48 42 29 23 30 30 39 33 27 26 33 45 57 43 40 44 52 51 61 59 57 78 78 75 63 61 86 85 74 66 61 59 54 50 47 51 47 43 38 35 34
62 65 94 90 82 66 48 40 42 43 45 39 29 34 38 34 29 31 36 48 51 58 58 56 56 68 92 92 90 88 87 84 76 78 97 94 82 74 73 69 68 68 50 44 44 42 36 32 37
57 85 62 68 69 52 42 45 55 58 47 32 42 44 43 89 96 66 37 61 94 80 61 53 50 56 64 100 100 100 100 89 83 89 94 100 100 88 89 93 77 43 33 36 35 34 38 42 48
50 62 76 72 62 73 65 53 58 53 51 59 53 56 36 52 81 91 100 81 66 68 74 66 60 51 46 50 88 99 100 100 100 95 77 85 98 97 100 99 63 47 43 45 49 40 44 46 53
42 47 50 59 74 100 100 82 57 54 100 93 94 100 100 73 72 65 69 59 48 47 46 46 47 55 73 63 45 58 99 100 100 100 100 93 99 100 100 99 100 100 69 61 56 48 53 59 76
46 48 54 60 87 82 80 74 71 100 95 93 60 43 34 33 34 38 23 27 39 50 55 56 46 39 39 46 56 55 41 77 92 100 100 98 100 100 100 100 100 100 100 96 53 41 56 94 96
50 53 61 63 68 70 69 100 100 100 100 96 87 93 81 59 40 30 27 26 28 30 31 36 45 48 50 43 40 47 75 41 94 92 100 100 100 100 88 89 100 100 100 91 77 75 93 97 86
47 44 40 48 52 60 78 98 100 100 100 100 100 98 78 56 51 49 48 43 36 30 26 31 36 42 46 58 40 37 54 99 59 92 100 92 100 83 82 80 94 100 100 77 91 87 100 99 99
61 47 47 44 50 59 74 98 100 100 100 100 99 86 77 77 67 61 52 48 42 38 33 33 35 42 50 45 42 43 44 71 82 92 83 100 100 100 81 90 97 100 98 74 82 100 100 100 100
68 56 50 57 73 73 69 94 100 100 100 94 92 88 82 75 70 65 56 48 44 47 47 42 37 42 46 45 43 39 39 66 81 75 100 100 96 94 100 88 96 100 83 76 72 100 100 100 100
62 63 61 75 92 74 84 100 81 92 96 98 96 86 76 69 60 54 49 45 43 43 48 45 43 35 36 41 41 37 36 38 60 75 74 98 94 93 92 73 68 62 72 70 71 90 100 100 97
62 62 66 74 91 95 100 100 100 85 84 84 76 84 76 59 53 51 45 39 36 37 39 43 43 39 34 27 30 29 33 50 55 66 76 76 76 72 82 98 74 71 68 54 42 52 90 100 100
75 69 79 98 100 100 100 100 98 91 88 87 81 72 58 54 52 49 44 35 26 25 22 26 25 25 24 22 21 26 30 39 62 49 88 91 82 79 65 96 99 74 59 56 46 39 38 70 96
86 83 87 79 84 94 85 87 77 80 84 75 64 58 58 54 49 42 31 23 22 16 15 14 12 13 15 15 15 19 27 25 52 88 63 80 92 93 79 67 64 77 67 59 44 36 32 30 26
100 100 90 87 84 82 82 77 74 72 77 68 64 59 56 52 47 36 29 23 16 15 12 10 10 11 12 12 13 14 18 27 25 54 80 73 87 94 80 81 73 66 78 90 75 62 43 37 38
100 100 100 90 83 84 96 93 80 70 72 67 66 69 70 55 45 34 24 15 13 11 10 9 9 11 15 13 13 13 17 18 21 32 62 80 72 77 86 83 83 78 73 71 77 84 67 42 35
96 96 96 95 90 92 97 85 74 78 73 67 63 56 49 48 40 25 17 14 13 11 10 10 10 12 15 16 16 18 19 16 20 20 38 61 75 84 86 87 78 79 77 76 71 65 61 50 42
91 88 94 88 80 71 72 77 82 80 70 59 49 44 38 34 30 18 16 16 12 12 11 11 11 12 14 16 18 24 21 22 18 18 22 34 45 62 79 87 83 82 81 80 75 62 54 46 44
88 96 99 88 68 63 66 66 75 78 69 57 49 45 31 32 25 19 19 19 15 12 12 13 19 21 19 24 21 25 26 27 24 23 23 26 38 54 70 68 70 93 86 84 82 73 71 63 47
75 93 87 77 58 46 45 50 58 65 68 59 43 29 28 29 24 24 25 23 15 13 13 23 62 70 49 51 38 30 31 41 36 27 27 27 30 41 55 65 65 82 71 68 79 77 68 77 85
79 69 69 76 70 50 41 33 37 47 39 34 29 27 25 32 29 30 30 22 17 21 19 21 54 59 78 59 46 46 48 34 38 31 28 28 29 30 34 48 66 82 83 89 95 96 86 71 75
70 76 66 63 56 48 36 33 39 34 30 30 28 31 27 35 32 28 27 18 27 55 38 23 33 72 71 74 69 76 61 41 34 37 38 41 39 32 35 38 45 65 76 68 66 82 81 80 77
80 60 58 52 52 43 37 32 34 33 36 38 38 34 30 29 27 22 21 18 39 70 67 50 48 67 88 84 54 76 68 65 66 61 67 66 71 65 59 48 41 40 46 52 56 57 57 50 47
Wind_Speed
35 40 41 43 44 49 47 42 41 35 32 33 36 34 36 38 39 43 43 42 41 44 43 39 35 33 32 34 35 37 37 35 35 35 34 35 34 36 36 37 36 37 37 35 35 35 36 35 36
37 38 40 43 47 48 44 44 40 32 32 35 37 37 38 40 41 41 41 41 43 44 42 39 38 38 33 33 33 33 33 32 32 33 34 33 32 33 32 31 31 30 31 31 33 32 32 34 34
41 43 46 50 52 48 40 35 37 33 41 40 39 39 43 43 37 39 42 43 44 46 44 40 40 39 36 35 36 35 35 35 34 32 32 31 30 28 28 29 29 31 32 32 32 32 32 34 34
46 47 45 53 51 50 43 35 39 43 40 36 35 40 43 43 46 45 44 42 44 45 43 42 40 41 41 40 40 40 37 38 38 36 35 35 33 33 31 31 31 32 32 33 33 33 34 35 35
44 46 48 54 52 44 41 42 43 47 48 43 39 41 46 49 46 45 44 40 40 42 43 41 41 43 43 43 43 41 41 39 39 39 39 39 38 37 37 36 35 33 34 34 34 35 35 35 35
53 53 55 56 56 56 47 45 51 50 48 44 43 44 42 45 45 45 45 43 41 44 42 42 42 42 44 44 43 43 43 42 40 40 42 42 41 41 40 38 38 37 37 38 38 38 37 35 35
58 52 54 58 60 54 50 53 55 53 51 43 43 44 46 48 45 46 44 43 41 42 43 42 41 41 44 46 45 44 44 45 43 42 42 44 42 42 42 41 40 40 41 41 41 40 36 33 33
55 56 56 56 54 56 55 55 54 50 49 45 44 44 49 51 47 44 45 43 40 42 42 41 37 40 42 45 47 46 46 45 44 44 43 43 40 40 41 41 41 42 44 45 43 39 37 36 36
63 62 62 55 54 56 55 51 48 47 48 52 50 45 47 50 45 46 45 43 45 44 43 43 41 40 42 42 45 48 48 46 44 45 45 43 42 42 41 42 42 40 41 42 42 42 41 41 36
64 64 65 64 59 55 55 52 49 51 54 48 45 45 42 40 42 38 42 46 47 50 49 50 50 47 46 46 46 46 49 49 47 46 46 46 45 44 42 40 38 37 37 38 39 42 44 41 36
63 65 68 62 56 51 50 52 54 56 52 46 42 50 44 47 52 46 50 52 50 50 51 51 52 53 53 53 50 49 50 51 51 51 48 45 46 46 47 44 41 42 43 45 44 42 41 42 38
62 65 61 58 49 49 53 58 56 55 54 50 52 55 59 59 56 57 58 59 62 61 56 55 56 57 59 60 60 58 53 53 53 53 52 49 47 50 47 47 46 47 47 47 45 39 36 36 32
63 62 60 55 52 52 54 55 57 55 56 63 64 61 60 61 62 66 61 59 60 62 64 65 66 63 63 64 64 67 64 59 58 56 52 50 48 48 46 48 48 47 47 45 48 43 41 29 27
59 61 59 57 58 55 53 55 54 62 67 67 66 66 66 67 67 67 68 66 66 68 70 74 75 76 77 74 71 67 71 68 62 61 57 57 54 52 49 47 49 48 45 47 48 46 30 28 29
62 60 61 65 64 59 56 57 62 63 68 72 74 71 70 70 71 72 75 77 77 79 82 78 79 81 81 78 77 75 74 71 69 64 63 61 59 59 56 50 48 47 46 45 42 35 34 33 30
68 66 63 64 63 62 59 57 67 69 70 72 75 76 75 74 75 77 79 81 82 83 83 79 79 79 80 81 80 77 77 78 71 70 69 68 68 61 57 52 50 49 46 45 44 38 36 30 27
69 67 64 62 62 60 60 60 72 73 72 74 78 78 79 81 83 81 83 87 87 83 81 83 80 82 84 83 82 84 85 83 78 75 74 75 74 72 66 55 54 53 49 46 42 41 34 45 44
69 66 64 59 63 61 61 64 71 74 77 81 84 85 86 85 85 89 92 94 94 90 86 84 84 82 84 87 85 85 87 90 90 84 79 79 79 77 75 72 66 63 55 50 42 43 44 37 37
72 67 65 67 66 62 62 61 71 76 79 82 87 89 89 90 91 93 96 99 95 94 91 88 88 88 89 88 92 92 90 95 94 93 85 81 79 75 76 74 75 68 68 65 65 52 44 42 50
72 71 69 68 71 70 69 72 80 81 84 86 89 92 94 95 96 98 100 100 96 94 93 93 91 92 94 94 92 93 96 93 99 99 92 86 83 79 78 75 75 77 74 72 69 69 65 62 61
76 76 77 75 77 80 80 79 82 83 86 90 94 97 97 98 100 100 99 98 95 94 94 93 91 90 91 91 87 88 91 93 99 104 102 94 88 83 79 77 78 77 76 77 79 79 79 80 85
78 83 83 85 85 85 85 81 83 87 91 95 97 99 101 100 101 101 101 99 96 95 92 87 84 81 81 82 82 83 88 91 96 105 105 101 94 90 87 80 77 77 77 77 77 76 77 79 80
83 84 86 87 87 87 87 91 84 87 91 96 95 98 100 103 105 105 104 93 88 82 80 73 71 67 70 71 74 78 83 91 92 103 110 104 104 98 91 85 81 79 77 78 80 79 77 77 77
87 89 89 89 91 90 91 97 87 92 96 99 99 101 103 104 103 98 96 87 80 72 68 63 62 62 61 63 67 71 75 80 92 93 105 112 106 99 94 91 87 84 83 80 80 81 79 78 77
93 94 94 92 93 96 96 98 94 96 98 101 103 104 105 103 101 91 85 78 71 63 58 55 54 54 55 58 61 69 70 75 85 92 97 105 109 106 100 94 91 90 89 85 84 81 81 81 79
94 96 98 100 100 98 98 98 99 99 101 104 105 109 107 104 93 84 74 71 64 57 49 49 46 43 48 52 58 61 67 71 76 85 91 95 102 108 103 99 97 94 91 88 88 85 83 86 85
97 100 104 107 105 105 104 105 104 103 106 106 105 104 99 92 83 75 67 63 57 52 49 44 39 39 41 46 53 57 60 66 74 82 84 89 92 96 101 101 99 100 98 93 91 92 91 89 93
106 107 107 110 112 109 107 105 103 104 103 100 96 92 88 79 74 65 60 54 53 50 51 47 42 41 47 47 50 53 59 64 71 75 79 83 86 89 93 98 101 98 96 96 96 97 98 96 96
111 109 109 110 109 108 104 94 92 93 89 84 81 78 75 71 65 59 52 50 50 50 50 50 43 38 37 41 46 47 56 62 63 65 66 71 77 81 86 93 96 99 101 98 94 95 97 97 97
114 112 109 107 103 101 98 84 86 81 76 74 74 72 67 61 59 53 49 49 50 49 49 49 44 40 39 43 46 48 52 52 52 56 59 59 60 66 76 84 89 90 92 89 90 95 96 93 92
Wind_Direction
287 286 294 284 276 287 285 281 286 292 294 300 303 300 300 287 284 284 283 279 274 276 282 282 279 279 279 277 276 275 277 278 277 275 275 278 278 278 280 281 282 284 286 288 290 292 295 298 298
287 285 284 282 280 289 288 279 279 286 294 299 297 297 294 293 286 285 283 279 272 271 275 278 275 278 277 278 276 276 274 274 274 273 275 274 276 277 278 280 283 287 289 293 296 298 300 301 301
286 287 284 284 281 284 293 287 279 290 297 299 294 293 291 288 278 280 280 276 276 273 272 271 272 270 272 274 276 274 275 276 277 275 275 273 272 272 274 278 283 285 289 294 299 301 301 299 301
291 288 286 280 282 280 287 285 280 288 297 294 284 282 280 281 278 271 278 280 276 273 273 272 271 272 274 274 275 276 275 271 272 274 274 274 274 274 275 280 284 285 286 292 297 300 299 298 298
291 286 288 282 284 281 290 287 283 289 290 291 287 286 281 282 273 270 273 273 273 270 270 269 268 268 269 272 274 275 272 269 267 268 269 273 275 274 276 278 280 281 284 289 294 299 300 301 297
293 290 287 283 285 290 287 286 287 285 284 285 284 285 276 267 266 267 275 275 274 272 269 269 269 268 267 268 271 273 272 269 265 264 265 267 271 273 275 278 280 279 281 285 289 295 299 300 299
287 291 287 285 284 284 283 287 284 283 282 280 280 280 265 259 260 263 272 274 273 278 275 271 265 267 267 266 266 267 269 269 269 264 264 265 266 267 271 276 278 278 280 284 290 293 293 297 299
288 285 281 282 282 284 285 286 281 282 282 284 282 276 266 261 264 265 267 271 273 272 272 271 271 271 269 264 265 266 267 267 268 265 263 263 263 266 269 274 276 278 282 286 289 290 292 296 300
287 282 282 289 288 288 289 282 279 278 282 282 279 266 264 264 268 267 269 275 278 279 276 274 272 272 275 273 266 266 265 266 265 264 262 264 263 267 270 271 275 282 285 288 287 290 290 293 296
285 281 282 282 287 285 286 282 280 283 285 279 272 263 253 271 276 268 267 273 277 280 279 276 277 271 272 275 272 269 267 266 263 262 261 263 263 268 269 268 270 282 287 289 291 290 286 290 293
284 282 281 283 285 281 284 284 284 286 278 271 268 262 268 272 276 272 267 276 280 279 273 277 278 277 273 271 272 272 271 267 265 266 263 262 265 266 267 265 271 278 283 285 288 293 288 288 292
284 282 281 281 284 279 278 284 286 285 269 269 264 262 265 267 270 272 279 279 279 276 272 270 272 274 275 275 270 269 271 271 267 263 263 264 265 265 262 266 274 279 279 282 287 291 295 294 293
282 283 281 282 280 282 284 287 287 270 270 272 276 273 270 271 270 268 270 276 280 281 282 280 276 271 271 272 272 268 266 269 269 266 262 260 263 262 262 268 274 275 276 277 282 285 294 291 294
283 284 282 279 279 282 283 280 278 270 274 277 276 276 276 278 278 278 279 279 280 280 278 277 277 276 274 272 269 265 260 260 264 266 261 261 254 258 261 266 272 274 274 276 279 282 282 284 290
286 286 286 283 282 283 280 276 276 275 273 275 278 277 279 279 280 281 281 282 283 285 285 277 273 272 270 269 268 265 262 252 252 257 260 257 254 257 259 259 263 265 267 277 275 283 276 277 297
287 288 290 290 285 281 278 273 269 271 272 273 275 278 283 285 283 284 284 284 285 286 286 280 273 268 267 265 265 262 261 258 248 246 251 252 255 255 257 259 259 263 266 271 272 280 279 282 274
286 289 287 285 281 279 278 271 267 269 271 273 275 276 279 282 285 286 287 287 286 282 279 277 274 271 268 264 263 262 259 257 254 247 245 246 246 249 253 253 255 258 262 270 272 274 279 280 271
287 285 283 279 275 280 275 270 271 269 272 276 279 281 282 284 284 286 286 287 287 285 282 277 275 271 267 264 262 260 260 258 253 251 247 246 247 247 246 248 247 248 248 253 261 262 267 268 285
287 282 283 283 278 274 273 277 278 278 279 279 280 281 282 284 284 284 286 288 288 286 283 280 277 273 269 260 259 260 257 251 249 249 250 248 246 247 245 245 248 245 246 249 248 248 250 246 248
285 284 280 279 275 274 269 279 279 281 282 281 281 282 283 284 284 285 286 287 287 286 283 280 276 273 269 265 259 254 253 248 247 248 244 247 248 247 247 243 245 249 245 243 243 243 243 242 249
284 283 279 278 277 276 275 279 280 282 282 283 283 283 284 284 286 287 289 289 288 286 282 278 275 270 267 264 259 254 249 247 244 243 243 243 245 246 246 247 247 247 248 249 250 249 250 251 255
285 280 279 277 278 278 279 279 280 282 283 283 284 286 287 289 290 291 291 289 289 286 281 276 272 268 264 260 256 252 248 244 242 242 242 241 243 246 245 246 248 249 249 251 252 253 249 249 247
282 279 279 281 283 283 283 282 282 285 285 285 286 287 288 288 290 291 291 291 286 282 278 275 269 264 261 257 253 249 245 242 241 241 241 240 242 243 246 247 247 250 252 254 255 256 256 253 252
282 281 280 281 283 284 284 285 287 286 286 287 289 288 287 289 291 291 292 291 288 283 278 272 266 262 257 256 253 248 247 243 240 241 242 242 241 243 244 247 249 250 252 253 256 258 258 259 258
283 283 282 281 283 285 285 286 289 287 287 287 288 290 290 292 293 294 294 290 284 281 275 268 265 261 257 251 248 246 247 243 242 240 241 242 244 244 243 245 248 249 250 253 254 256 258 259 260
282 282 283 283 285 285 285 286 287 289 288 289 291 293 292 293 295 295 291 286 283 279 270 267 265 258 253 251 247 243 242 244 245 243 242 243 245 245 245 245 246 248 250 252 254 254 258 260 262
281 283 283 284 284 284 284 286 287 289 290 290 290 290 292 293 294 292 287 285 281 274 269 258 252 252 245 247 241 241 239 240 242 244 243 243 243 244 246 246 247 247 250 255 255 254 257 261 262
282 282 284 284 284 285 285 286 289 289 289 290 291 290 290 293 291 286 283 280 275 273 272 258 243 239 234 242 243 241 242 241 243 244 244 245 246 245 246 247 248 250 248 249 252 253 256 259 263
285 286 285 284 285 286 287 288 289 288 289 289 287 287 288 288 286 284 275 270 269 269 267 261 250 239 235 236 235 238 244 245 248 249 245 244 245 245 245 247 248 250 253 254 255 256 255 258 260
284 286 288 288 287 286 288 290 288 289 289 286 285 286 287 286 284 278 270 265 258 263 257 262 248 237 234 245 243 237 246 248 248 248 245 244 243 243 244 246 248 249 252 254 254 255 256 258 259